Location: Joplin, MO
(37.0842°N, 94.5133°W)
Time: 20:33:44
(UTC+02:00)

Transit 2A Rocket - Pass Details

Date: 02 April 2023
Orbit: 584 x 914 km, 66.7° (Epoch: 06 June)

Event Time Altitude Azimuth Distance (km) Brightness Sun altitude
Rises 01:42:14 0° 342° (NNW) 3,553 8.7 10.8°
Reaches altitude 10° 01:45:15 10° 355° (N) 2,598 7.8 10.2°
Maximum altitude 01:50:13 26° 50° (NE) 1,693 6.5 9.2°
Drops below altitude 10° 01:54:59 10° 105° (ESE) 2,486 7.1 8.2°
Sets 01:57:48 0° 118° (ESE) 3,370 7.8 7.7°
